Location: Bailleul
(50.3375°N, 2.8513°E)
Time: 18:34:06
(UTC+00:00)

Terra - Pass Details

Date: 30 July 2021
Orbit: 701 x 703 km, 98.2° (Epoch: 17 September)

Event Time Altitude Azimuth Distance (km) Brightness Sun altitude
Exits shadow 21:30:58 21° 162° (SSE) 1,546 3.0 -14.4°
Maximum altitude 21:34:09 87° 76° (ENE) 712 1.8 -14.7°
Drops below altitude 10° 21:38:57 10° 346° (NNW) 2,184 5.5 -15.1°
Sets 21:41:13 0° 347° (NNW) 3,107 6.6 -15.3°
